User: anonymous   Login
Location: Bamobli
(6.6379°N, 10.9396°W)
Time: 03:50:48
(UTC+00:00)
Language:

Cosmos 1238 Rocket - Orbit

View from above orbital plane
View from above orbital plane
View from above satellite
View from above satellite

Ground track
Ground track

The orbit data is extracted from the following two-line orbital elements,

1 12139U 81003B   21138.83560893  .00001031  00000-0  47629-4 0  9992
2 12139  82.9530  34.0607 0455669 233.9644 121.8531 14.58487133 55321
Epoch (UTC): 18 May 2021 20:03:16
Eccentricity: 0.0455669
inclination: 82.9530°
perigee height: 375 km
apogee height: 1020 km
right ascension of ascending node: 34.0607°
argument of perigee: 233.9644°
revolutions per day: 14.58487133
mean anomaly at epoch: 121.8531°
orbit number at epoch: 5532

The dashed part of the orbit path shows where the satellite is in the earth's shadow,  

DLR